Manitowoc, WI

6:06 PM CDT on June 27, 2017 (GMT -0500)
Manitowoc County

Weather History for KMTW - January, 2014

Change the Weather History Date:

Thursday, January 30, 2014

  Actual Average Record
Temperature  
Mean Temperature 22 °F -  
Max Temperature 28 °F 27 °F 47 °F (1988)
Min Temperature 17 °F 12 °F -23 °F (1951)
Degree Days  
Heating Degree Days 42    
Moisture  
Dew Point 19 °F    
Average Humidity 75    
Maximum Humidity 92    
Minimum Humidity 51    
Precipitation  
Precipitation 0.00 in - - ()
Sea Level Pressure  
Sea Level Pressure 29.69 in    
Wind  
Wind Speed 15 mph (SW)    
Max Wind Speed 25 mph    
Max Gust Speed 32 mph    
Visibility 6 miles    
Events Fog , Snow    
Averages and records for this station are not official NWS values.
T = Trace of Precipitation, MM = Missing Value Source: NWS Daily Summary

Daily Weather History Graph

Daily Weather History Graph

Search for Another Location

Airport or City:

Trip Planner

Search our weather history database for the weather conditions in past years. The results will help you decide how hot, cold, wet, or windy it might be!

Date:

Astronomy

Jan. 30, 2014 Rise Set
Actual Time 7:10 AM CST 4:58 PM CST
Civil Twilight 6:39 AM CST 5:28 PM CST
Nautical Twilight 6:04 AM CST 6:03 PM CST
Astronomical Twilight 5:30 AM CST 6:37 PM CST
Moon 6:34 AM CST (1/30) 5:11 PM CST (1/30)
Length of Visible Light 10h 49m
Length of Day
9h 47m
Waning Crescent, 0% of the Moon is Illuminated
Jan 30
Waning Crescent
Jan 30
New
Feb 6
First Quarter
Feb 14
Full
Feb 22
Last Quarter

Hourly Weather History & Observations

Time (CST) Temp. Windchill Dew Point Humidity Pressure Visibility Wind Dir Wind Speed Gust Speed Precip Events Conditions
12:56 AM 23.0 °F 10.1 °F 10.9 °F 60% 29.85 in 10.0 mi SSW 15.0 mph - N/A   Clear
1:56 AM 28.0 °F 15.7 °F 12.0 °F 51% 29.82 in 10.0 mi SSW 17.3 mph - N/A   Clear
2:56 AM 28.0 °F 15.7 °F 12.9 °F 53% 29.80 in 10.0 mi SSW 17.3 mph 23.0 mph N/A   Clear
3:56 AM 28.0 °F 16.1 °F 12.9 °F 53% 29.78 in 10.0 mi SSW 16.1 mph 20.7 mph N/A   Clear
4:56 AM 28.0 °F 16.5 °F 12.9 °F 53% 29.78 in 10.0 mi SSW 15.0 mph - N/A   Partly Cloudy
5:56 AM 27.0 °F 15.6 °F 12.9 °F 56% 29.76 in 10.0 mi SSW 13.8 mph - N/A   Partly Cloudy
6:56 AM 28.0 °F 16.5 °F 14.0 °F 56% 29.76 in 10.0 mi SSW 15.0 mph - N/A   Partly Cloudy
7:56 AM 27.0 °F 17.3 °F 15.1 °F 61% 29.76 in 10.0 mi South 10.4 mph - N/A   Overcast
8:56 AM 27.0 °F 14.7 °F 15.1 °F 61% 29.73 in 10.0 mi South 16.1 mph 25.3 mph N/A   Overcast
9:56 AM 28.0 °F 16.1 °F 15.1 °F 58% 29.71 in 10.0 mi South 16.1 mph - N/A   Overcast
10:56 AM 28.0 °F 16.5 °F 16.0 °F 61% 29.69 in 10.0 mi SSW 15.0 mph 26.5 mph N/A   Overcast
11:10 AM 28.4 °F 13.8 °F 17.6 °F 64% 29.64 in 1.2 mi SSW 25.3 mph 32.2 mph 0.00 in Snow Light Snow
11:12 AM 28.4 °F 15.1 °F 17.6 °F 64% 29.64 in 0.8 mi SW 20.7 mph 32.2 mph 0.00 in Snow Light Snow
11:24 AM 26.6 °F 14.3 °F 21.2 °F 80% 29.64 in 0.5 mi SW 16.1 mph - 0.00 in Fog , Snow Snow
11:28 AM 26.6 °F 15.2 °F 21.2 °F 80% 29.63 in 0.2 mi SW 13.8 mph - 0.00 in Fog , Snow Heavy Snow
11:56 AM 25.0 °F 13.1 °F 21.9 °F 88% 29.67 in 0.5 mi South 13.8 mph - 0.00 in Fog , Snow Light Snow
11:59 AM 24.8 °F 13.4 °F 21.2 °F 86% 29.59 in 1.0 mi South 12.7 mph - 0.00 in Snow Light Snow
12:02 PM 24.8 °F 13.4 °F 21.2 °F 86% 29.59 in 2.5 mi South 12.7 mph - 0.00 in Snow Light Snow
12:14 PM 24.8 °F 12.9 °F 21.2 °F 86% 29.58 in 9.0 mi South 13.8 mph - 0.00 in Snow Light Snow
12:45 PM 26.6 °F 15.7 °F 21.2 °F 80% 29.55 in 2.5 mi SSW 12.7 mph - 0.00 in Snow Light Snow
12:49 PM 26.6 °F 15.7 °F 21.2 °F 80% 29.55 in 1.8 mi SSW 12.7 mph - 0.00 in Snow Light Snow
12:56 PM 26.1 °F 14.0 °F 21.0 °F 81% 29.62 in 1.5 mi SSW 15.0 mph - 0.00 in Snow Light Snow
1:05 PM 24.8 °F 11.9 °F 21.2 °F 86% 29.55 in 0.8 mi SSW 16.1 mph - 0.00 in Snow Light Snow
1:20 PM 24.8 °F 13.4 °F 21.2 °F 86% 29.54 in 0.5 mi SSW 12.7 mph - 0.00 in Fog , Snow Snow
1:56 PM 25.0 °F 13.1 °F 23.0 °F 92% 29.61 in 1.0 mi SSW 13.8 mph - 0.00 in Snow Light Snow
2:03 PM 26.6 °F 15.7 °F 23.0 °F 86% 29.53 in 2.0 mi SSW 12.7 mph - 0.00 in Snow Light Snow
2:17 PM 26.6 °F 14.7 °F 23.0 °F 86% 29.52 in 3.0 mi SSW 15.0 mph - 0.00 in Snow Light Snow
2:41 PM 26.6 °F 14.3 °F 23.0 °F 86% 29.52 in 5.0 mi SSW 16.1 mph - 0.00 in Snow Light Snow
2:56 PM 27.0 °F 16.7 °F 21.9 °F 81% 29.61 in 5.0 mi SW 11.5 mph - 0.00 in Snow Light Snow
3:56 PM 28.0 °F 16.5 °F 21.9 °F 78% 29.62 in 9.0 mi WSW 15.0 mph 21.9 mph 0.00 in Snow Light Snow
4:56 PM 28.0 °F 17.0 °F 23.0 °F 81% 29.66 in 9.0 mi WSW 13.8 mph - 0.00 in Snow Light Snow
5:56 PM 28.9 °F 19.8 °F 24.1 °F 82% 29.70 in 9.0 mi West 10.4 mph - 0.00 in Snow Light Snow
6:13 PM 28.4 °F 18.5 °F 24.8 °F 86% 29.63 in 9.0 mi West 11.5 mph - 0.00 in Snow Light Snow
6:56 PM 28.0 °F 18.6 °F 24.1 °F 85% 29.73 in 10.0 mi West 10.4 mph - 0.00 in   Scattered Clouds
7:56 PM 28.0 °F 20.0 °F 23.0 °F 81% 29.76 in 10.0 mi West 8.1 mph - N/A   Mostly Cloudy
8:56 PM 27.0 °F 16.7 °F 23.0 °F 85% 29.80 in 10.0 mi NW 11.5 mph - N/A   Clear
9:27 PM 26.6 °F 14.7 °F 19.4 °F 74% 29.76 in 10.0 mi NNW 15.0 mph 20.7 mph N/A   Mostly Cloudy
9:56 PM 23.0 °F 10.6 °F 17.1 °F 78% 29.85 in 9.0 mi NNW 13.8 mph - 0.00 in Snow Light Snow
10:33 PM 21.2 °F 6.8 °F 15.8 °F 80% 29.81 in 10.0 mi NW 17.3 mph 24.2 mph 0.00 in Snow Light Snow
10:56 PM 19.0 °F 6.8 °F 12.9 °F 77% 29.91 in 10.0 mi WNW 11.5 mph - 0.00 in   Mostly Cloudy
11:17 PM 17.6 °F 4.3 °F 12.2 °F 79% 29.84 in 10.0 mi WNW 12.7 mph - N/A   Partly Cloudy
11:56 PM 17.1 °F 3.6 °F 10.0 °F 74% 29.94 in 10.0 mi NW 12.7 mph - N/A   Clear